JAL150 RJSA-RJTT

Flight info

Callsign JAL150
Flight time 1h 2m
Altitude 36000
Route UWE Y32 RUBIS Y10 GODIN
Aircraft B738/M-SDE2E3FGHIRWXY/LB1

Departure

Time 2026-05-06 11:56
Airport Aomori Airport (RJSA)

Arrival

Time 2026-05-06 12:59
Airport Tokyo Haneda International Airport (RJTT)
Time Latitude Longitude Altitude Speed Heading
2026-05-06 11:08 40.73738 140.68909 688 ft 0 kts 321°
2026-05-06 11:41 40.73735 140.68912 679 ft 3 kts 322°
2026-05-06 11:42 40.73713 140.68934 681 ft 4 kts 324°
2026-05-06 11:42 40.73691 140.68954 680 ft 4 kts 327°
2026-05-06 11:42 40.73668 140.68973 683 ft 4 kts 332°
2026-05-06 11:42 40.73644 140.68988 685 ft 4 kts 343°
2026-05-06 11:43 40.73620 140.68991 680 ft 4 kts 28°
2026-05-06 11:43 40.73611 140.68983 681 ft 1 kts 52°
2026-05-06 11:43 40.73611 140.68982 681 ft 0 kts 52°
2026-05-06 11:47 40.73617 140.68993 681 ft 3 kts 52°
2026-05-06 11:47 40.73640 140.69030 683 ft 7 kts 52°
2026-05-06 11:47 40.73678 140.69094 687 ft 11 kts 51°
2026-05-06 11:47 40.73726 140.69174 688 ft 11 kts 52°
2026-05-06 11:48 40.73773 140.69253 679 ft 11 kts 53°
2026-05-06 11:48 40.73818 140.69330 681 ft 10 kts 52°
2026-05-06 11:48 40.73862 140.69404 682 ft 10 kts 51°
2026-05-06 11:48 40.73905 140.69476 682 ft 10 kts 52°
2026-05-06 11:49 40.73947 140.69546 687 ft 10 kts 52°
2026-05-06 11:49 40.73988 140.69615 687 ft 10 kts 52°
2026-05-06 11:49 40.74032 140.69690 681 ft 11 kts 52°
2026-05-06 11:49 40.74084 140.69776 683 ft 13 kts 51°
2026-05-06 11:50 40.74145 140.69878 684 ft 15 kts 52°
2026-05-06 11:50 40.74206 140.69981 687 ft 13 kts 52°
2026-05-06 11:50 40.74253 140.70062 687 ft 8 kts 58°
2026-05-06 11:50 40.74258 140.70132 686 ft 8 kts 118°
2026-05-06 11:51 40.74233 140.70163 682 ft 2 kts 142°
2026-05-06 11:51 40.74230 140.70165 681 ft 0 kts 142°
2026-05-06 11:54 40.74229 140.70167 687 ft 1 kts 142°
2026-05-06 11:54 40.74216 140.70180 685 ft 4 kts 142°
2026-05-06 11:55 40.74186 140.70209 683 ft 6 kts 146°
2026-05-06 11:55 40.74137 140.70212 686 ft 8 kts 207°
2026-05-06 11:55 40.74097 140.70152 684 ft 9 kts 232°
2026-05-06 11:55 40.74049 140.70073 684 ft 25 kts 232°
2026-05-06 11:56 40.73792 140.69642 679 ft 93 kts 232°
2026-05-06 11:56 40.73277 140.68790 719 ft 142 kts 229°
2026-05-06 11:56 40.72623 140.67730 1199 ft 153 kts 229°
2026-05-06 11:56 40.71947 140.66654 1997 ft 152 kts 229°
2026-05-06 11:57 40.71331 140.65583 2792 ft 148 kts 232°
2026-05-06 11:57 40.70658 140.64414 3095 ft 170 kts 232°
2026-05-06 11:57 40.69901 140.63121 3342 ft 187 kts 231°
2026-05-06 11:57 40.69039 140.61704 3621 ft 207 kts 233°
2026-05-06 11:58 40.68098 140.60122 3923 ft 229 kts 233°
2026-05-06 11:58 40.67124 140.58490 4739 ft 228 kts 234°
2026-05-06 11:58 40.66131 140.56828 5434 ft 235 kts 234°
2026-05-06 11:58 40.65102 140.55103 6046 ft 243 kts 234°
2026-05-06 11:59 40.64045 140.53337 6742 ft 248 kts 234°
2026-05-06 11:59 40.62969 140.51541 7480 ft 251 kts 234°
2026-05-06 11:59 40.61884 140.49732 8257 ft 253 kts 234°
2026-05-06 11:59 40.60777 140.47911 9025 ft 258 kts 230°
2026-05-06 12:00 40.59300 140.46525 9777 ft 268 kts 209°
2026-05-06 12:00 40.57500 140.45724 10420 ft 281 kts 199°
2026-05-06 12:00 40.55534 140.45115 10596 ft 307 kts 197°
2026-05-06 12:00 40.53361 140.44517 10760 ft 330 kts 196°
2026-05-06 12:01 40.51044 140.43895 11047 ft 348 kts 195°
2026-05-06 12:01 40.48638 140.43252 11600 ft 356 kts 195°
2026-05-06 12:01 40.46207 140.42590 12388 ft 356 kts 196°
2026-05-06 12:01 40.43782 140.41917 13179 ft 358 kts 196°
2026-05-06 12:02 40.41334 140.41230 13807 ft 362 kts 196°
2026-05-06 12:02 40.38882 140.40536 14404 ft 368 kts 196°
2026-05-06 12:02 40.36361 140.39818 15039 ft 373 kts 196°
2026-05-06 12:02 40.33809 140.39087 15669 ft 378 kts 195°
2026-05-06 12:03 40.31228 140.38351 16320 ft 382 kts 195°
2026-05-06 12:03 40.28614 140.37604 16966 ft 387 kts 195°
2026-05-06 12:03 40.25970 140.36850 17584 ft 392 kts 195°
2026-05-06 12:03 40.23284 140.36084 18109 ft 399 kts 195°
2026-05-06 12:04 40.20552 140.35305 18634 ft 404 kts 195°
2026-05-06 12:04 40.17792 140.34520 19210 ft 407 kts 195°
2026-05-06 12:04 40.15057 140.33743 19797 ft 409 kts 195°
2026-05-06 12:04 40.12264 140.32951 20334 ft 413 kts 195°
2026-05-06 12:05 40.09449 140.32152 20903 ft 415 kts 194°
2026-05-06 12:05 40.06613 140.31348 21433 ft 419 kts 194°
2026-05-06 12:05 40.03749 140.30537 21919 ft 423 kts 194°
2026-05-06 12:05 40.00850 140.29715 22320 ft 429 kts 194°
2026-05-06 12:06 39.97918 140.28886 22808 ft 433 kts 194°
2026-05-06 12:06 39.95006 140.28063 23302 ft 435 kts 194°
2026-05-06 12:06 39.92033 140.27224 23759 ft 439 kts 194°
2026-05-06 12:06 39.89043 140.26380 24139 ft 442 kts 194°
2026-05-06 12:07 39.86029 140.25530 24552 ft 444 kts 195°
2026-05-06 12:07 39.83000 140.24677 24973 ft 446 kts 195°
2026-05-06 12:07 39.79959 140.23821 25327 ft 450 kts 195°
2026-05-06 12:07 39.76889 140.22957 25697 ft 453 kts 195°
2026-05-06 12:08 39.73805 140.22092 26091 ft 454 kts 195°
2026-05-06 12:08 39.70748 140.21235 26461 ft 456 kts 195°
2026-05-06 12:08 39.67637 140.20362 26814 ft 459 kts 195°
2026-05-06 12:08 39.64504 140.19484 27155 ft 461 kts 195°
2026-05-06 12:09 39.61359 140.18604 27480 ft 464 kts 196°
2026-05-06 12:09 39.58193 140.17720 27762 ft 468 kts 196°
2026-05-06 12:09 39.54978 140.16951 28046 ft 474 kts 188°
2026-05-06 12:09 39.51658 140.17073 28366 ft 482 kts 177°
2026-05-06 12:10 39.48336 140.17712 28731 ft 485 kts 173°
2026-05-06 12:10 39.45065 140.18601 29063 ft 488 kts 171°
2026-05-06 12:10 39.41767 140.19602 29515 ft 486 kts 171°
2026-05-06 12:10 39.38482 140.20603 30045 ft 484 kts 171°
2026-05-06 12:11 39.35204 140.21562 30425 ft 483 kts 172°
2026-05-06 12:11 39.31911 140.22489 30735 ft 483 kts 172°
2026-05-06 12:11 39.28628 140.23389 31116 ft 481 kts 173°
2026-05-06 12:11 39.25342 140.24025 31585 ft 474 kts 178°
2026-05-06 12:12 39.22087 140.24458 32185 ft 467 kts 180°
2026-05-06 12:12 39.18864 140.24836 32658 ft 463 kts 180°
2026-05-06 12:12 39.15654 140.25216 33011 ft 463 kts 180°
2026-05-06 12:12 39.12489 140.25614 33334 ft 463 kts 180°
2026-05-06 12:13 39.09289 140.26039 33714 ft 462 kts 180°
2026-05-06 12:13 39.06100 140.26476 34099 ft 459 kts 180°
2026-05-06 12:13 39.02945 140.26911 34605 ft 453 kts 181°
2026-05-06 12:13 38.99821 140.27341 34937 ft 451 kts 181°
2026-05-06 12:14 38.96698 140.27782 35156 ft 452 kts 181°
2026-05-06 12:14 38.93566 140.28229 35308 ft 454 kts 181°
2026-05-06 12:14 38.90429 140.28687 35609 ft 453 kts 181°
2026-05-06 12:14 38.87364 140.29134 36092 ft 446 kts 182°
2026-05-06 12:15 38.81164 140.30004 36132 ft 449 kts 182°
2026-05-06 12:15 38.74972 140.30854 36122 ft 444 kts 183°
2026-05-06 12:16 38.68856 140.31693 36126 ft 440 kts 184°
2026-05-06 12:16 38.62822 140.32523 36118 ft 437 kts 184°
2026-05-06 12:17 38.56812 140.33338 36112 ft 433 kts 184°
2026-05-06 12:17 38.50827 140.34166 36122 ft 433 kts 184°
2026-05-06 12:18 38.44792 140.34991 36134 ft 439 kts 184°
2026-05-06 12:18 38.38744 140.35936 36122 ft 448 kts 179°
2026-05-06 12:19 38.35705 140.37029 36136 ft 459 kts 172°
2026-05-06 12:19 38.32686 140.38377 36116 ft 460 kts 172°
2026-05-06 12:19 38.26710 140.41069 36103 ft 450 kts 173°
2026-05-06 12:20 38.20817 140.43650 36120 ft 449 kts 174°
2026-05-06 12:20 38.14947 140.46182 36102 ft 447 kts 175°
2026-05-06 12:21 38.09090 140.48702 36103 ft 440 kts 176°
2026-05-06 12:21 38.03310 140.51198 36124 ft 440 kts 175°
2026-05-06 12:22 37.97521 140.53715 36124 ft 440 kts 176°
2026-05-06 12:22 37.91772 140.56215 36127 ft 440 kts 176°
2026-05-06 12:23 37.85964 140.58702 36127 ft 440 kts 176°
2026-05-06 12:23 37.80159 140.61198 36132 ft 440 kts 176°
2026-05-06 12:24 37.77262 140.62184 36129 ft 421 kts 186°
2026-05-06 12:24 37.74398 140.62535 36142 ft 406 kts 193°
2026-05-06 12:24 37.68969 140.61906 36134 ft 383 kts 206°
2026-05-06 12:25 37.63809 140.60393 36119 ft 379 kts 206°
2026-05-06 12:25 37.58690 140.58887 36149 ft 377 kts 206°
2026-05-06 12:26 37.53572 140.57405 36136 ft 377 kts 206°
2026-05-06 12:26 37.48502 140.55957 36121 ft 375 kts 206°
2026-05-06 12:27 37.43420 140.54506 36135 ft 374 kts 206°
2026-05-06 12:27 37.38362 140.53066 35854 ft 368 kts 206°
2026-05-06 12:28 37.35861 140.52355 35149 ft 369 kts 206°
2026-05-06 12:28 37.33340 140.51629 34242 ft 376 kts 205°
2026-05-06 12:28 37.30752 140.50883 33158 ft 386 kts 205°
2026-05-06 12:28 37.28132 140.50133 31990 ft 396 kts 204°
2026-05-06 12:29 37.25423 140.49364 31106 ft 399 kts 203°
2026-05-06 12:29 37.22705 140.48594 30179 ft 401 kts 202°
2026-05-06 12:29 37.19972 140.47811 29122 ft 404 kts 202°
2026-05-06 12:29 37.17253 140.47034 28481 ft 399 kts 202°
2026-05-06 12:30 37.14554 140.46269 27813 ft 396 kts 201°
2026-05-06 12:30 37.11874 140.45513 27199 ft 392 kts 201°
2026-05-06 12:30 37.09222 140.44765 26616 ft 389 kts 201°
2026-05-06 12:30 37.06621 140.44029 26021 ft 388 kts 200°
2026-05-06 12:31 37.03990 140.43287 25458 ft 386 kts 200°
2026-05-06 12:31 37.01363 140.42542 24856 ft 392 kts 199°
2026-05-06 12:31 36.98642 140.41767 24258 ft 411 kts 199°
2026-05-06 12:31 36.95830 140.40972 23591 ft 415 kts 198°
2026-05-06 12:32 36.93019 140.40186 22862 ft 412 kts 198°
2026-05-06 12:32 36.90227 140.39408 22035 ft 412 kts 197°
2026-05-06 12:32 36.87441 140.38633 21423 ft 408 kts 197°
2026-05-06 12:32 36.84719 140.37877 20797 ft 404 kts 198°
2026-05-06 12:33 36.81997 140.37121 20202 ft 398 kts 197°
2026-05-06 12:33 36.79310 140.36371 19657 ft 393 kts 197°
2026-05-06 12:33 36.76653 140.35629 19104 ft 390 kts 197°
2026-05-06 12:33 36.74010 140.34905 18539 ft 388 kts 195°
2026-05-06 12:34 36.71356 140.34319 17905 ft 387 kts 193°
2026-05-06 12:34 36.68710 140.33808 17311 ft 383 kts 192°
2026-05-06 12:34 36.66087 140.33299 16740 ft 380 kts 192°
2026-05-06 12:34 36.63489 140.32781 16180 ft 376 kts 192°
2026-05-06 12:35 36.60937 140.32268 15966 ft 366 kts 192°
2026-05-06 12:35 36.58427 140.31763 15754 ft 369 kts 192°
2026-05-06 12:35 36.55892 140.31250 15567 ft 378 kts 192°
2026-05-06 12:35 36.53287 140.30725 15347 ft 380 kts 191°
2026-05-06 12:36 36.50685 140.30203 15130 ft 377 kts 191°
2026-05-06 12:36 36.48095 140.29683 14918 ft 376 kts 191°
2026-05-06 12:36 36.45518 140.29166 14704 ft 375 kts 191°
2026-05-06 12:36 36.42944 140.28651 14491 ft 374 kts 191°
2026-05-06 12:37 36.40384 140.28138 14284 ft 373 kts 191°
2026-05-06 12:37 36.37825 140.27628 14078 ft 372 kts 191°
2026-05-06 12:37 36.35271 140.27121 13865 ft 372 kts 191°
2026-05-06 12:37 36.32718 140.26615 13603 ft 372 kts 191°
2026-05-06 12:38 36.30209 140.26119 13313 ft 367 kts 191°
2026-05-06 12:38 36.27700 140.25622 13089 ft 363 kts 191°
2026-05-06 12:38 36.25203 140.25127 12886 ft 364 kts 191°
2026-05-06 12:38 36.22701 140.24634 12669 ft 362 kts 192°
2026-05-06 12:39 36.20237 140.24148 12468 ft 356 kts 192°
2026-05-06 12:39 36.17804 140.23664 12265 ft 353 kts 192°
2026-05-06 12:39 36.15385 140.23182 12085 ft 351 kts 192°
2026-05-06 12:39 36.12980 140.22704 11892 ft 350 kts 192°
2026-05-06 12:40 36.10577 140.22226 11698 ft 349 kts 192°
2026-05-06 12:40 36.08210 140.21756 11508 ft 349 kts 192°
2026-05-06 12:40 36.05810 140.21281 11313 ft 349 kts 192°
2026-05-06 12:40 36.03418 140.20808 11114 ft 345 kts 192°
2026-05-06 12:41 36.01057 140.20417 10884 ft 339 kts 188°
2026-05-06 12:41 35.98738 140.20233 10533 ft 331 kts 189°
2026-05-06 12:41 35.96473 140.19930 10100 ft 320 kts 191°
2026-05-06 12:41 35.94329 140.19598 10008 ft 298 kts 191°
2026-05-06 12:42 35.92352 140.19298 10033 ft 276 kts 192°
2026-05-06 12:42 35.90502 140.19016 10047 ft 264 kts 192°
2026-05-06 12:42 35.88687 140.18736 9891 ft 263 kts 192°
2026-05-06 12:42 35.86882 140.18462 9628 ft 261 kts 192°
2026-05-06 12:43 35.85076 140.18192 9277 ft 262 kts 191°
2026-05-06 12:43 35.83273 140.17926 8976 ft 261 kts 191°
2026-05-06 12:43 35.81496 140.17668 8702 ft 259 kts 191°
2026-05-06 12:43 35.79717 140.17412 8504 ft 256 kts 191°
2026-05-06 12:44 35.77942 140.17158 8348 ft 257 kts 191°
2026-05-06 12:44 35.76162 140.16904 8186 ft 258 kts 190°
2026-05-06 12:44 35.74382 140.16650 8066 ft 257 kts 190°
2026-05-06 12:44 35.72605 140.16398 8024 ft 257 kts 190°
2026-05-06 12:45 35.70850 140.16151 8008 ft 249 kts 190°
2026-05-06 12:45 35.69169 140.15916 7995 ft 237 kts 190°
2026-05-06 12:45 35.66087 140.15485 7963 ft 214 kts 191°
2026-05-06 12:46 35.64614 140.15276 7745 ft 213 kts 191°
2026-05-06 12:46 35.63135 140.15065 7421 ft 217 kts 190°
2026-05-06 12:46 35.61596 140.14845 6827 ft 233 kts 190°
2026-05-06 12:46 35.59976 140.14615 6729 ft 237 kts 190°
2026-05-06 12:47 35.58303 140.14377 6585 ft 246 kts 189°
2026-05-06 12:47 35.56580 140.14133 6429 ft 252 kts 189°
2026-05-06 12:47 35.54827 140.13887 6267 ft 255 kts 189°
2026-05-06 12:47 35.53074 140.13641 6101 ft 252 kts 189°
2026-05-06 12:48 35.51342 140.13400 5922 ft 248 kts 189°
2026-05-06 12:48 35.49666 140.13165 5785 ft 245 kts 189°
2026-05-06 12:48 35.47972 140.12928 5634 ft 246 kts 189°
2026-05-06 12:48 35.46273 140.12689 5485 ft 246 kts 189°
2026-05-06 12:49 35.44568 140.12450 5336 ft 247 kts 189°
2026-05-06 12:49 35.42863 140.12210 5186 ft 247 kts 189°
2026-05-06 12:49 35.41156 140.11971 5028 ft 247 kts 189°
2026-05-06 12:49 35.39448 140.11732 4870 ft 247 kts 189°
2026-05-06 12:50 35.37744 140.11496 4729 ft 245 kts 189°
2026-05-06 12:50 35.36072 140.11261 4573 ft 245 kts 189°
2026-05-06 12:50 35.34390 140.11024 4402 ft 241 kts 189°
2026-05-06 12:50 35.32751 140.10795 4265 ft 234 kts 188°
2026-05-06 12:51 35.31157 140.10572 4114 ft 227 kts 190°
2026-05-06 12:51 35.29722 140.09927 4010 ft 218 kts 218°
2026-05-06 12:51 35.28681 140.08615 4001 ft 214 kts 234°
2026-05-06 12:51 35.27935 140.07076 4001 ft 207 kts 238°
2026-05-06 12:52 35.27239 140.05572 3999 ft 200 kts 239°
2026-05-06 12:52 35.26737 140.03995 4004 ft 201 kts 264°
2026-05-06 12:52 35.26939 140.02296 3996 ft 208 kts 287°
2026-05-06 12:52 35.27633 140.00757 4018 ft 209 kts 296°
2026-05-06 12:53 35.28373 139.99228 4013 ft 209 kts 296°
2026-05-06 12:53 35.29333 139.97876 3982 ft 218 kts 325°
2026-05-06 12:53 35.30712 139.97074 4022 ft 221 kts 328°
2026-05-06 12:53 35.32056 139.96127 4008 ft 224 kts 324°
2026-05-06 12:54 35.33392 139.95150 4003 ft 224 kts 325°
2026-05-06 12:54 35.34730 139.94186 4002 ft 223 kts 325°
2026-05-06 12:54 35.36067 139.93232 3969 ft 221 kts 325°
2026-05-06 12:54 35.37360 139.92315 3774 ft 210 kts 325°
2026-05-06 12:55 35.38599 139.91436 3501 ft 201 kts 324°
2026-05-06 12:55 35.39770 139.90604 3244 ft 193 kts 324°
2026-05-06 12:55 35.40927 139.89781 2990 ft 189 kts 324°
2026-05-06 12:55 35.42040 139.88990 2753 ft 181 kts 324°
2026-05-06 12:56 35.43106 139.88233 2511 ft 174 kts 324°
2026-05-06 12:56 35.44150 139.87489 2283 ft 174 kts 325°
2026-05-06 12:56 35.45199 139.86743 2064 ft 176 kts 325°
2026-05-06 12:56 35.46266 139.85985 1822 ft 177 kts 326°
2026-05-06 12:57 35.47320 139.85237 1585 ft 173 kts 326°
2026-05-06 12:57 35.48357 139.84500 1357 ft 172 kts 325°
2026-05-06 12:57 35.49373 139.83779 1128 ft 169 kts 326°
2026-05-06 12:57 35.50368 139.83073 930 ft 161 kts 327°
2026-05-06 12:58 35.51308 139.82405 697 ft 152 kts 327°
2026-05-06 12:58 35.52201 139.81771 575 ft 148 kts 329°
2026-05-06 12:58 35.53105 139.81130 384 ft 147 kts 329°
2026-05-06 12:58 35.53982 139.80500 154 ft 145 kts 330°
2026-05-06 12:59 35.54814 139.79905 29 ft 131 kts 329°
2026-05-06 12:59 35.55487 139.79434 27 ft 90 kts 330°
2026-05-06 12:59 35.55893 139.79145 27 ft 34 kts 330°
2026-05-06 12:59 35.56039 139.79022 26 ft 22 kts 316°
2026-05-06 13:00 35.56128 139.78880 24 ft 19 kts 302°
2026-05-06 13:00 35.56139 139.78801 22 ft 9 kts 255°
2026-05-06 13:00 35.56139 139.78734 22 ft 8 kts 295°
2026-05-06 13:00 35.56179 139.78691 24 ft 8 kts 329°
2026-05-06 13:01 35.56224 139.78660 24 ft 7 kts 330°
2026-05-06 13:01 35.56268 139.78629 26 ft 7 kts 330°
2026-05-06 13:01 35.56310 139.78599 27 ft 7 kts 330°
2026-05-06 13:01 35.56352 139.78569 25 ft 6 kts 329°
2026-05-06 13:02 35.56355 139.78567 25 ft 0 kts 329°
2026-05-06 13:02 35.56361 139.78562 28 ft 3 kts 329°
2026-05-06 13:03 35.56383 139.78541 25 ft 5 kts 309°
2026-05-06 13:03 35.56391 139.78505 24 ft 4 kts 270°
2026-05-06 13:03 35.56380 139.78467 28 ft 6 kts 240°
2026-05-06 13:03 35.56358 139.78418 24 ft 8 kts 239°
2026-05-06 13:04 35.56327 139.78354 26 ft 10 kts 239°
2026-05-06 13:04 35.56292 139.78282 27 ft 10 kts 239°
2026-05-06 13:04 35.56259 139.78212 24 ft 9 kts 240°
2026-05-06 13:04 35.56227 139.78143 26 ft 9 kts 240°
2026-05-06 13:05 35.56196 139.78077 28 ft 9 kts 240°
2026-05-06 13:05 35.56165 139.78012 25 ft 9 kts 240°
2026-05-06 13:05 35.56135 139.77949 27 ft 8 kts 239°
2026-05-06 13:05 35.56106 139.77888 26 ft 8 kts 240°
2026-05-06 13:06 35.56077 139.77827 24 ft 9 kts 240°
2026-05-06 13:06 35.56040 139.77747 25 ft 12 kts 239°
2026-05-06 13:06 35.55994 139.77650 24 ft 14 kts 239°
2026-05-06 13:06 35.55947 139.77551 23 ft 13 kts 240°
2026-05-06 13:07 35.55911 139.77476 24 ft 8 kts 240°
2026-05-06 13:07 35.55880 139.77423 25 ft 8 kts 218°
2026-05-06 13:07 35.55828 139.77414 22 ft 8 kts 163°
2026-05-06 13:07 35.55778 139.77445 23 ft 8 kts 150°
2026-05-06 13:08 35.55730 139.77479 22 ft 8 kts 150°
2026-05-06 13:08 35.55673 139.77520 22 ft 11 kts 150°
2026-05-06 13:08 35.55599 139.77572 21 ft 13 kts 149°
2026-05-06 13:08 35.55519 139.77630 23 ft 13 kts 150°
2026-05-06 13:09 35.55441 139.77684 21 ft 13 kts 150°
2026-05-06 13:09 35.55363 139.77740 21 ft 14 kts 150°
2026-05-06 13:09 35.55281 139.77798 21 ft 14 kts 150°
2026-05-06 13:09 35.55197 139.77857 23 ft 14 kts 150°
2026-05-06 13:10 35.55116 139.77915 24 ft 13 kts 150°
2026-05-06 13:10 35.55038 139.77971 22 ft 13 kts 150°
2026-05-06 13:10 35.54962 139.78025 21 ft 12 kts 150°
2026-05-06 13:10 35.54887 139.78077 21 ft 12 kts 150°
2026-05-06 13:11 35.54815 139.78129 25 ft 12 kts 149°
2026-05-06 13:11 35.54745 139.78179 26 ft 12 kts 150°
2026-05-06 13:11 35.54676 139.78227 24 ft 11 kts 150°
2026-05-06 13:11 35.54610 139.78275 24 ft 11 kts 150°
2026-05-06 13:12 35.54542 139.78323 23 ft 12 kts 150°
2026-05-06 13:12 35.54467 139.78376 24 ft 13 kts 150°
2026-05-06 13:12 35.54389 139.78431 23 ft 13 kts 150°
2026-05-06 13:12 35.54319 139.78481 24 ft 10 kts 149°
2026-05-06 13:13 35.54296 139.78554 26 ft 10 kts 78°
2026-05-06 13:13 35.54325 139.78626 28 ft 9 kts 60°
2026-05-06 13:13 35.54358 139.78694 30 ft 9 kts 60°
2026-05-06 13:13 35.54384 139.78724 31 ft 5 kts
2026-05-06 13:14 35.54425 139.78702 29 ft 8 kts 330°
2026-05-06 13:14 35.54470 139.78670 28 ft 6 kts 329°
2026-05-06 13:14 35.54496 139.78652 27 ft 3 kts 330°
2026-05-06 13:14 35.54505 139.78646 27 ft 0 kts 330°